Location: Newark
(49.8348°N, 24.0280°E)
Time: 20:58:14
(UTC+00:00)

Courier 1B - Pass Details

Date: 26 January 2020
Orbit: 962 x 1209 km, 28.3° (Epoch: 27 February)

Event Time Altitude Azimuth Distance (km) Brightness Sun altitude
Exits shadow 02:41:06 13° 176° (S) 2,820 9.8 -32.8°
Drops below altitude 10° 02:44:06 10° 152° (SSE) 3,079 10.3 -32.3°
Sets 02:48:52 0° 127° (SE) 4,079 11.3 -31.5°
